Hourly Data Report for March 04, 2020

All times are specified in Local Standard Time (LST). Add 1 hour to adjust for Daylight Saving Time where and when it is observed.

OTTAWA INTL A
ONTARIO
Current Station Operator: NAVCAN

45°19'00.000" N
75°40'00.000" W
114.90 m
6106001
71628
YOW

Download Data

Hourly Data (March 2020)
Hourly Data Report for March 4, 2020
TIME Temp Definition
°C
Dew Point Definition
°C
Rel Hum Definition
%
Wind Dir Definition
10's deg

Wind Spd Definition
km/h
Visibility Definition
km
Stn Press Definition
kPa
Hmdx Definition


Wind Chill Definition


Weather Definition


00:00 0.7 0.2 97 27 32 12.9 97.96     Rain,Snow
01:00 0.7 0.1 96 27 30 12.9 98.03     Snow
02:00 0.8 0.1 95 27 28 24.1 98.09     LegendNANA
03:00 0.9 0.0 93 27 27 24.1 98.16     LegendNANA
04:00 1.0 -0.3 91 27 34 24.1 98.27     Cloudy
05:00 1.1 -0.8 87 28 32 24.1 98.38     LegendNANA
06:00 1.0 -1.3 85 27 24 24.1 98.47     LegendNANA
07:00 1.0 -2.2 80 28 26 24.1 98.61     Mostly Cloudy
08:00 0.7 -3.0 76 28 30 24.1 98.73     LegendNANA
09:00 1.1 -2.7 76 29 22 24.1 98.75     LegendNANA
10:00 1.5 -2.6 75 27 30 24.1 98.81     Mostly Cloudy
11:00 1.9 -2.5 73 26 29 24.1 98.86     LegendNANA
12:00 1.8 -2.6 72 28 25 24.1 98.89     LegendNANA
13:00 2.6 -2.0 72 27 32 24.1 98.86     Mostly Cloudy
14:00 3.4 -3.3 61 26 34 24.1 98.91     LegendNANA
15:00 3.6 -3.8 58 26 28 24.1 98.97     LegendNANA
16:00 3.2 -3.3 63 26 21 24.1 99.04     Mostly Cloudy
17:00 2.8 -2.0 71 25 19 24.1 99.14     LegendNANA
18:00 1.8 -2.0 76 25 15 24.1 99.25     LegendNANA
19:00 1.8 -1.9 76 25 12 24.1 99.34     Mostly Cloudy
20:00 1.7 -2.4 74 27 14 24.1 99.44     LegendNANA
21:00 1.5 -2.7 74 27 23 24.1 99.48     LegendNANA
22:00 0.5 -2.6 80 28 14 24.1 99.53     Mostly Cloudy
23:00 -0.2 -2.7 83 28 16 24.1 99.60   -5 LegendNANA

Notes on Data Quality.

Legend

  • E = Estimated
  • M = Missing
  • NA = Not Available*
  • [empty] = Indicates an unobserved value
Date modified: